Regional Weather Roundup
Issued by NWS

Home | Current Version | Previous Version | Graphics & Text | Print | Product List | Glossary On
Versions: 1 2 3 4 5 6 7 8 9 10 11 12 13 14 15 16 17 18 19 20 21 22 23 24 25 26 27 28 29 30 31 32 33 34 35 36 37 38 39 40 41 42 43 44 45 46 47 48 49 50
000
ASUS43 KOAX 030202
RWRNE

WEATHER ROUNDUP FOR NEBRASKA
NATIONAL WEATHER SERVICE OMAHA NE
900 PM CDT SAT MAY 02 2015

NOTES: SATELLITE DATA IS BEING USED TO AUGMENT CLOUD COVER ABOVE
       12000 FEET.
       "FAIR" INDICATES FEW OR NO CLOUDS BELOW 12,000 FEET WITH NO
       SIGNIFICANT WEATHER AND/OR OBSTRUCTIONS TO VISIBILITY.

  * THESE STATIONS DO NOT REPORT WEATHER SUCH AS RAIN...SNOW OR FOG.

NEZ001>004-019>022-054>056-030300-
NEBRASKA PANHANDLE

CITY           SKY/WX    TMP DP  RH WIND       PRES   REMARKS
SCOTTSBLUFF    CLOUDY    69  39  33 S16G24    29.80R
ALLIANCE       PTCLDY    64  44  48 SW9       29.77R
CHADRON        PTCLDY    66  43  43 CALM      29.72R
KIMBALL        CLOUDY    58  46  62 SW6       29.88F
SIDNEY         LGT RAIN  61  46  57 SW25G33   29.90R
$$

NEZ057>060-069>072-079>082-030300-
SOUTHWEST NEBRASKA

CITY           SKY/WX    TMP DP  RH WIND       PRES   REMARKS
NORTH PLATTE   PTCLDY    67  42  40 CALM      29.74R
IMPERIAL       CLOUDY    69  40  34 W6        29.79R
MCCOOK         CLOUDY    76  45  33 S5        29.74R
$$

NEZ005>010-023>029-035>040-094-030300-
NORTH CENTRAL NEBRASKA

CITY           SKY/WX    TMP DP  RH WIND       PRES   REMARKS
VALENTINE      PTCLDY    71  41  33 NE5       29.68S
AINSWORTH      PTCLDY    72  37  28 W7        29.69R
BROKEN BOW     PTCLDY    76  44  32 SW10      29.71R
ORD            PTCLDY    74  48  39 SW9       29.67R
$$

NEZ041-046>049-061>064-073>077-083>087-030300-
SOUTH CENTRAL NEBRASKA

CITY           SKY/WX    TMP DP  RH WIND       PRES   REMARKS
GRAND ISLAND   CLOUDY    76  52  43 S13       29.70S
AURORA         CLOUDY    77  53  42 S18G26    29.71S
HASTINGS       CLOUDY    76  52  43 S10       29.72S
KEARNEY *      CLOUDY    75  45  33 NE12      29.71S
$$

NEZ011>018-030>034-042>045-030300-
NORTHEAST NEBRASKA

CITY           SKY/WX    TMP DP  RH WIND       PRES   REMARKS
NORFOLK        PTCLDY    73  57  57 E12       29.70R
BLAIR          CLEAR     66  56  70 SE13      29.76S
COLUMBUS *     CLOUDY    73  55  53 S10       29.72R
TEKAMAH        CLEAR     68  56  65 SE17      29.75S
$$

NEZ050>053-065>068-078-088>093-030300-
SOUTHEAST NEBRASKA

CITY           SKY/WX    TMP DP  RH WIND       PRES   REMARKS
LINCOLN        PTCLDY    75  53  46 S15       29.74R
OMAHA EPPLEY   MOCLDY    68  57  68 SE21      29.76F
FALLS CITY     CLEAR     68  52  56 SE13      29.82R
$$

NEZ044-045-051>053-067-030300-
OMAHA AREA

CITY           SKY/WX    TMP DP  RH WIND       PRES   REMARKS
OMAHA EPPLEY   MOCLDY    68  57  68 SE21      29.76F
BLAIR          CLEAR     66  56  70 SE13      29.76S
OFFUTT AFB     PTCLDY    67  58  73 SE12      29.76F
$$



USA.gov is the U.S. government's official web portal to all federal, state and local government web resources and services.